User: anonymous   Login
Location: Dover
(39.1580°N, 75.5250°W)
Time: 19:51:42
(UTC-05:00)
Language:

SeaSat 1 - Orbit

View from above orbital plane
View from above orbital plane
View from above satellite
View from above satellite

Ground track
Ground track

The orbit data is extracted from the following two-line orbital elements,

1 10967U 78064A   14325.59903868  .00000420  00000-0  16542-3 0  4409
2 10967 107.9946 139.5081 0001213 292.7768 108.1991 14.43168189911180
Epoch (UTC): 21 November 2014 14:22:36
Eccentricity: 0.0001213
inclination: 107.9946°
perigee height: 747 km
apogee height: 749 km
right ascension of ascending node: 139.5081°
argument of perigee: 292.7768°
revolutions per day: 14.43168189
mean anomaly at epoch: 108.1991°
orbit number at epoch: 91118

The dashed part of the orbit path shows where the satellite is in the earth's shadow,  

DLR